User: anonymous   Login
Location: Unspecified
(0.0000°N, 0.0000°E)
Time: 21:35:08
(UTC+00:00)
Language:

COSMOS 2509 - Orbit

View from above orbital plane
View from above orbital plane
View from above satellite
View from above satellite

Ground track
Ground track

The orbit data is extracted from the following two-line orbital elements,

1 40922U 15050C   18350.17279773 -.00000006  00000-0 -11249-3 0  9996
2 40922  82.4877 345.0497 0014257 249.4460 110.5098 12.42870150146493
Epoch (UTC): 16 December 2018 04:08:49
Eccentricity: 0.0014257
inclination: 82.4877°
perigee height: 1483 km
apogee height: 1505 km
right ascension of ascending node: 345.0497°
argument of perigee: 249.4460°
revolutions per day: 12.42870150
mean anomaly at epoch: 110.5098°
orbit number at epoch: 14649

The dashed part of the orbit path shows where the satellite is in the earth's shadow,  

DLR